Location: Capelle
(50.3413°N, 1.9974°E)
Time: 06:34:41
(UTC+00:00)

USA 215 - Pass Details

Date: 12 January 2026
Orbit: 1098 x 1109 km, 123.0° (Epoch: 10 January)

Event Time Altitude Azimuth Distance (km) Brightness Sun altitude
Exits shadow 19:58:06 66° 289° (WNW) 1,196 3.5 -35.0°
Drops below altitude 10° 20:03:50 10° 253° (WSW) 2,958 6.1 -35.9°
Sets 20:06:19 0° 252° (WSW) 3,912 6.9 -36.3°
